This demonstration page uses our WeatherBlox Daily Observations layout. Learn more.

Left ArrowRight Arrow

Hourly Observations for June 5, 2019

Temp ( °F °C ) Dew Point ( °F °C ) Humidity (%) Winds ( mph kmh ) Pressure ( in mb ) Visibility ( mi km ) Precip ( " mm )
12:51 am 00:51 Clear 75 23.9 32 0 21 21 N 3 6 29.74 1007 10 16 0.00 0.00
1:51 am 01:51 Clear 68 20 30 -1.1 24 24 NNE 8 13 29.76 1008 10 16 0.00 0.00
2:51 am 02:51 Clear 70 21.1 32 0 25 25 WSW 6 9 29.77 1008 10 16 0.00 0.00
3:51 am 03:51 Clear 70 21.1 32 0 25 25 SSE 3 6 29.77 1008 10 16 0.00 0.00
4:51 am 04:51 Clear 63 17.2 30 -1.1 29 29 ENE 6 9 29.79 1009 10 16 0.00 0.00
5:51 am 05:51 Sunny 65 18.3 32 0 29 29 ENE 6 9 29.81 1010 10 16 0.00 0.00
6:51 am 06:51 Sunny 73 22.8 33 0.6 23 23 SE 7 11 29.82 1010 10 16 0.00 0.00
7:51 am 07:51 Sunny 79 26.1 36 2.2 21 21 SE 10 17 29.83 1010 10 16 0.00 0.00
8:51 am 08:51 Sunny 80 26.7 37 2.8 21 21 SSW 6 9 29.83 1010 10 16 0.00 0.00
9:51 am 09:51 Sunny 84 28.9 38 3.3 19 19 VRB 3 6 29.81 1010 10 16 0.00 0.00
10:51 am 10:51 Sunny 87 30.6 34 1.1 15 15 WSW 10 17 29.81 1010 10 16 0.00 0.00
11:51 am 11:51 Sunny 91 32.8 31 -0.6 12 12 W 10 17 29.79 1009 10 16 0.00 0.00
12:51 pm 12:51 Sunny 93 33.9 27 -2.8 9 9 WNW 12 19 29.76 1008 10 16 0.00 0.00
1:51 pm 13:51 Sunny 95 35 28 -2.2 9 9 WNW 14 22 29.75 1007 10 16 0.00 0.00
2:51 pm 14:51 Sunny 96 35.6 27 -2.8 8 8 W 16 26 29.72 1007 10 16 0.00 0.00
3:51 pm 15:51 Sunny 95 35 27 -2.8 9 9 W 9 15 29.70 1006 10 16 0.00 0.00
4:51 pm 16:51 Sunny 95 35 28 -2.2 9 9 W 22 35 29.71 1006 10 16 0.00 0.00
5:51 pm 17:51 Sunny 93 33.9 29 -1.7 10 10 W 15 24 29.71 1006 10 16 0.00 0.00
6:51 pm 18:51 Sunny 90 32.2 29 -1.7 11 11 W 17 28 29.71 1006 10 16 0.00 0.00
7:51 pm 19:51 Clear 86 30 30 -1.1 13 13 W 10 17 29.73 1007 10 16 0.00 0.00
8:51 pm 20:51 Clear 80 26.7 30 -1.1 16 16 NNW 8 13 29.76 1008 10 16 0.00 0.00
9:51 pm 21:51 Clear 80 26.7 31 -0.6 17 17 NW 8 13 29.78 1008 10 16 0.00 0.00
10:51 pm 22:51 Clear 78 25.6 31 -0.6 18 18 NNW 9 15 29.77 1008 10 16 0.00 0.00
11:51 pm 23:51 Clear 76 24.4 31 -0.6 19 19 NW 9 15 29.76 1008 10 16 0.00 0.00

Powered by AerisWeather